This demonstration page uses our WeatherBlox Daily Observations layout. Learn more.

Left ArrowRight Arrow

Hourly Observations for October 25, 2021

Temp ( °F °C ) Dew Point ( °F °C ) Humidity (%) Winds ( mph kmh ) Pressure ( in mb ) Visibility ( mi km ) Precip ( " mm )
12:15 am 00:15 Partly Cloudy 40 4.6 39 3.9 95 95 N 3 6 30.04 1017 10 16 N/A
12:35 am 00:35 Mostly Cloudy 40 4.4 39 3.9 97 97 N N/A 30.06 1018 10 16 N/A
12:55 am 00:55 Cloudy 43 6.1 42 5.7 97 97 NNE 9 15 30.05 1018 10 16 N/A
1:15 am 01:15 Cloudy 44 6.5 42 5.7 95 95 N 7 11 30.05 1018 10 16 N/A
1:35 am 01:35 Cloudy 44 6.5 42 5.7 95 95 N 6 9 30.07 1018 10 16 N/A
1:55 am 01:55 Cloudy 43 6.3 42 5.5 95 95 N 7 11 30.08 1018 10 16 N/A
2:15 am 02:15 Cloudy 44 6.5 42 5.6 94 94 N 9 15 30.06 1018 10 16 N/A
2:35 am 02:35 Cloudy 44 6.5 42 5.5 93 93 N 8 13 30.07 1018 10 16 N/A
2:55 am 02:55 Cloudy 43 6.3 42 5.5 95 95 NNE 10 17 30.08 1018 10 16 N/A
3:15 am 03:15 Cloudy 43 6.2 41 5.2 93 93 NNE 8 13 30.07 1018 10 16 N/A
3:35 am 03:35 Cloudy 43 6.2 41 5.1 93 93 N 9 15 30.06 1018 10 16 N/A
3:55 am 03:55 Cloudy 43 6 41 5 93 93 N 7 11 30.08 1019 10 16 N/A
4:15 am 04:15 Cloudy 43 6 41 5.1 94 94 NNE 6 9 30.06 1018 10 16 N/A
4:35 am 04:35 Cloudy 42 5.7 41 5 95 95 NNE 7 11 30.08 1019 10 16 N/A
4:55 am 04:55 Cloudy 42 5.5 41 4.8 95 95 NE 3 6 30.09 1019 10 16 N/A
5:15 am 05:15 Cloudy 42 5.5 41 4.8 95 95 NNE 9 15 30.08 1019 10 16 N/A
5:35 am 05:35 Cloudy 42 5.5 41 4.9 96 96 NE 10 17 30.09 1019 10 16 N/A
5:55 am 05:55 Cloudy 42 5.3 40 4.6 95 95 NE 7 11 30.11 1019 10 16 N/A
6:15 am 06:15 Cloudy 41 5.1 40 4.5 96 96 NE 8 13 30.10 1019 10 16 N/A
6:35 am 06:35 Cloudy 41 5.1 40 4.4 95 95 NE 10 17 30.10 1019 10 16 N/A
6:55 am 06:55 Cloudy 40 4.6 39 4 96 96 ENE 8 13 30.11 1020 10 16 N/A
7:15 am 07:15 Cloudy 40 4.6 39 4 96 96 NE 6 9 30.11 1020 10 16 N/A
7:35 am 07:35 Cloudy 41 4.8 40 4.2 96 96 E 6 9 30.12 1020 10 16 N/A
7:55 am 07:55 Cloudy 40 4.6 39 4 96 96 E 6 9 30.12 1020 10 16 N/A
8:15 am 08:15 Cloudy 40 4.6 39 4.1 97 97 E 5 7 30.12 1020 7 11 N/A
8:35 am 08:35 Cloudy with Mist and Fog 41 4.8 40 4.4 97 97 N N/A 30.13 1020 4 6 N/A
8:55 am 08:55 Cloudy with Mist and Fog 41 4.8 40 4.5 98 98 E 6 9 30.13 1020 4 6 N/A
9:15 am 09:15 Cloudy with Mist and Fog 40 4.6 40 4.2 97 97 ESE 6 9 30.12 1020 4 6 N/A
9:35 am 09:35 Cloudy with Mist and Fog 40 4.6 40 4.2 97 97 ESE 5 7 30.12 1020 2 3 N/A
9:55 am 09:55 Cloudy with Mist and Fog 41 4.8 40 4.5 98 98 ESE 3 6 30.12 1020 2 2 N/A
10:15 am 10:15 Cloudy with Mist and Fog 41 4.9 40 4.6 98 98 E 3 6 30.14 1021 2 2 N/A
10:35 am 10:35 Cloudy with Mist and Fog 41 4.8 40 4.5 98 98 N N/A 30.14 1021 4 6 N/A
10:55 am 10:55 Cloudy with Mist and Fog 41 5 40 4.6 97 97 E 7 11 30.12 1020 5 8 N/A
11:15 am 11:15 Cloudy 41 5 40 4.6 97 97 SE 6 9 30.12 1020 10 16 N/A
11:35 am 11:35 Cloudy 42 5.5 41 5 97 97 SSE 5 7 30.12 1020 10 16 N/A
11:55 am 11:55 Cloudy 42 5.6 41 4.8 95 95 SE 5 7 30.11 1020 10 16 N/A
12:15 pm 12:15 Cloudy 43 6 41 5.1 94 94 SSE 5 7 30.11 1020 10 16 N/A
12:35 pm 12:35 Cloudy 43 6.2 41 5.1 93 93 SE 7 11 30.12 1020 10 16 N/A
12:55 pm 12:55 Cloudy 43 6.3 42 5.3 93 93 SE 5 7 30.11 1020 10 16 N/A
1:15 pm 13:15 Cloudy 44 6.6 42 5.3 92 92 SE 8 13 30.07 1018 10 16 N/A
1:35 pm 13:35 Cloudy 45 7.1 41 5.2 88 88 ESE 9 15 30.07 1018 10 16 N/A
1:55 pm 13:55 Cloudy 45 7 41 5.1 88 88 SSE 9 15 30.06 1018 10 16 N/A
2:15 pm 14:15 Cloudy 45 7.1 42 5.4 89 89 SE 9 15 30.05 1018 10 16 N/A
2:35 pm 14:35 Cloudy 45 7.2 42 5.5 89 89 SE 12 19 30.04 1017 10 16 N/A
2:55 pm 14:55 Cloudy 46 7.5 42 5.8 89 89 SE 9 15 30.03 1017 10 16 N/A
3:15 pm 15:15 Cloudy 47 8.1 42 5.8 86 86 SE 10 17 30.01 1016 10 16 N/A
3:35 pm 15:35 Cloudy 47 8.3 42 5.7 84 84 SSE 12 19 30.00 1016 10 16 N/A
3:55 pm 15:55 Cloudy 46 8 42 5.6 85 85 SSE 14 22 29.99 1016 10 16 N/A
4:15 pm 16:15 Cloudy 46 7.8 42 5.8 87 87 SE 16 26 29.99 1016 10 16 N/A
4:35 pm 16:35 Cloudy 47 8.2 43 6 86 86 SSE 14 22 29.99 1016 10 16 N/A
4:55 pm 16:55 Cloudy 47 8.5 43 6 84 84 SE 15 24 29.98 1015 10 16 N/A
5:15 pm 17:15 Cloudy 47 8.3 43 5.9 85 85 SE 13 20 29.98 1015 10 16 N/A
5:35 pm 17:35 Cloudy 47 8.2 43 6 86 86 SE 15 24 29.98 1015 10 16 N/A
5:55 pm 17:55 Cloudy 46 8 43 6 87 87 SE 12 19 29.98 1015 10 16 N/A
6:15 pm 18:15 Cloudy 46 7.7 42 5.7 87 87 SSE 13 20 29.98 1015 10 16 N/A
6:35 pm 18:35 Cloudy 46 7.5 42 5.7 88 88 SSE 12 19 29.99 1015 10 16 N/A
6:55 pm 18:55 Cloudy 45 7.3 42 5.7 90 90 SSE 12 19 30.00 1016 10 16 N/A
7:15 pm 19:15 Cloudy 46 7.5 42 5.8 89 89 SSE 14 22 30.00 1016 10 16 N/A
7:35 pm 19:35 Cloudy 46 7.5 43 6 90 90 SE 14 22 30.00 1016 10 16 N/A
7:55 pm 19:55 Cloudy 46 7.5 43 6 90 90 SE 16 26 30.00 1016 10 16 N/A
8:15 pm 20:15 Cloudy 46 7.5 43 6.1 91 91 SSE 15 24 30.00 1016 10 16 N/A
8:35 pm 20:35 Cloudy 46 7.6 43 6.1 90 90 SSE 15 24 29.98 1015 10 16 N/A
8:55 pm 20:55 Cloudy 46 7.6 43 6.2 91 91 SSE 17 28 29.97 1015 10 16 N/A
9:15 pm 21:15 Cloudy 46 7.8 44 6.5 92 92 SE 14 22 29.97 1015 10 16 N/A
9:35 pm 21:35 Cloudy 46 8 44 6.6 91 91 SE 12 19 29.96 1015 10 16 N/A
9:55 pm 21:55 Cloudy 47 8.2 44 6.7 90 90 SE 14 22 29.96 1015 10 16 N/A
10:15 pm 22:15 Cloudy 47 8.3 44 6.8 90 90 SE 14 22 29.96 1014 10 16 N/A
10:35 pm 22:35 Cloudy 47 8.3 44 6.8 90 90 SE 14 22 29.96 1014 10 16 N/A
10:55 pm 22:55 Cloudy 46 8 44 6.5 90 90 SE 15 24 29.95 1014 10 16 N/A
11:15 pm 23:15 Cloudy 46 7.6 44 6.5 93 93 SE 13 20 29.95 1014 10 16 N/A
11:35 pm 23:35 Cloudy 45 7 43 6 93 93 SE 12 19 29.95 1014 10 16 N/A
11:55 pm 23:55 Cloudy 44 6.9 43 6.1 95 95 SE 13 20 29.94 1014 10 16 N/A

Powered by AerisWeather